Tracking 25620 objects as of 18-May-2022
HD Live streaming from Space Station
objects crossing your sky now

STARLINK 1062

Track STARLINK 1062 now!
10-day predictions
STARLINK 1062 is classified as:


NORAD ID: 44767
Int'l Code: 2019-074BG
Perigee: 553.1 km
Apogee: 555.6 km
Inclination: 53.1 °
Period: 95.6 minutes
Semi major axis: 6925 km
RCS: Unknown
Launch date: November 11, 2019
Source: United States (US)
Launch site: AIR FORCE EASTERN TEST RANGE (AFETR)
aabbcc
Your satellite tracking list
Your tracking list is empty




NASA's NSSDC Master Catalog

Two Line Element Set (TLE):
1 44767U 19074BG  22138.57248199  .00002150  00000-0  16323-3 0  9996
2 44767  53.0575 351.5792 0001744  48.6591 311.4547 15.06397689138524
Source of the keplerian elements: AFSPC